Location: Altavilla Irpina
(41.0000°N, 14.7833°E)
Time: 00:36:39
(UTC+00:00)

ISS - Pass Details

Date: 19 May 2025
Orbit: 415 x 417 km, 51.6° (Epoch: 22 June)

Event Time Altitude Azimuth Distance (km) Brightness Sun altitude
Rises 20:11:22 0° 310° (NW) 2,361 1.7 -17.9°
Reaches altitude 10° 20:13:57 10° 330° (NNW) 1,495 0.3 -18.2°
Maximum altitude 20:16:20 18° 16° (NNE) 1,103 -1.2 -18.5°
Enters shadow 20:18:28 11° 58° (ENE) 1,420 -1.2 -18.8°
